Portada
METAR-TAF:

METAR-TAF

Aeroports :

Lismore, Austràlia

latitud: 28-49-41S, longitud: 153-15-36E, altitud: 11 m

Observació

L'informe es va fer fa 21 minuts, a les 16:00 UTC
Vent 8 kt del Nord
Temperatura 11°C
Humitat 94%
Pressió 1014 hPa
Visibilitat 10 km o més

METAR: YLIS 261600Z AUTO 36008KT 9999 // NCD 11/10 Q1014

Hora: 02:21 (16:21 UTC)


TAF: manca

Observacions i pronòstics meteorològics de més de 4000 aeroports (METAR i TAF).

Les estacions disponibles són els punts grocs i vermells al mapa.

Posi el ratolí al punt desitjat per veure el nom de l'estació.

Feu clic per veure les observacions i els pronòstics meteorològics.

Per canviar el mapa: feu clic els botons verds amb una creu de color negre per apropar; al botó verd amb un guió per allunyar la imatge; o en les fletxes verdes per a mapes adjacents.


METAR-TAF: